Back to catalog

STARLINK-31336

AliveCommunicationsVLEO
NORAD 58944·PAYLOAD·🇺🇸 United States

Launched Feb 10, 2024 from Vandenberg Space Force Base

Loading…

Next Passes (next 24 hours)

TLE

FreshSource: CelesTrak SupGP

Epoch: Sep 15, 2026, 01:55 UTC

1 58944C 24027P   26258.08034722 -.00007530  00000+0 -22247-3 0  2588
2 58944  53.1578 148.8947 0001198  84.1969 122.5112 15.34393044    19

Track STARLINK-31336 in real time with AllMySat

Download on the App Store